[[{"header":{"parameterUnit":"m.s-1","parameterCategory":1,"la1":30.2991,"la2":30.254,"lo1":-89.0895,"lo2":-89.0444,"dy":0.0017,"dx":0.0017,"nx":28,"ny":28,"refTime":"2023-07-25T21:00:00:Z","depth":0,"parameterNumber":2,"parameterNumberName":"U-component_of_WINDS"},"data":[0,0,0,0,0,0,0,0,0,0,0,0,0,0,0,0,0,0,0,0,0,0,0,0,0,0,0,0,0,0,0,0,0,0,0,0,0,0,0,0,0,0,0,0,0,0,0,0,0,0,0,0,0,0,0,0,0,0,1.4394,1.4394,0,1.4383,1.4383,1.4383,1.4339,1.4338,1.4337,1.4336,1.4325,1.4326,1.4327,0,0,0,0,0,0,0,0,0,0,0,0,0,1.4377,1.4377,1.4394,1.4394,1.4394,1.4383,1.4383,1.4383,1.4339,1.4338,1.4337,1.4336,1.4325,1.4326,1.4327,0,0,0,0,0,0,0,0,0,0,0,0,0,1.4377,1.4377,1.4395,1.4371,1.4369,1.4383,1.4383,1.4383,1.434,1.4338,1.4337,1.4335,1.4325,1.4326,1.4327,1.4363,0,0,1.433,1.433,0,0,0,0,0,0,0,0,1.4377,1.4378,1.4375,1.4373,1.437,1.4361,1.4373,1.4376,1.434,1.4351,1.4336,1.4334,1.4338,1.4338,1.4339,1.4362,1.4362,1.433,1.433,1.4331,1.4331,0,0,0,0,0,0,0,1.4377,1.4378,1.439,1.4375,1.4372,1.4361,1.4359,1.4373,1.4353,1.435,1.4347,1.4346,1.4337,1.4339,1.4339,1.4362,1.433,1.4331,1.4331,1.4332,1.4411,1.4412,0,0,0,0,0,0,1.438,1.4378,1.439,1.439,1.437,1.4362,1.436,1.4366,1.4353,1.435,1.4347,1.4344,1.4338,1.4338,1.4338,1.4377,1.4331,1.4332,1.4332,1.4409,1.4411,1.4412,0,0,0,0,0,0,1.438,1.4382,1.4391,1.4383,1.4383,1.4364,1.437,1.4366,1.4368,1.4351,1.4347,1.4353,1.4337,1.4337,1.4356,1.4376,1.4332,1.4333,1.4407,1.441,1.4412,1.4457,0,0,0,0,0,0,1.438,1.4382,1.4396,1.4384,1.4384,1.441,1.4372,1.4367,1.4369,1.4365,1.4355,1.4352,1.4335,1.4355,1.4357,1.4377,1.4334,1.4405,1.4408,1.4411,1.4454,1.4461,1.4467,0,0,0,0,0,1.4379,1.441,1.4397,1.4399,1.4401,1.4411,1.4411,1.4391,1.4371,1.4385,1.4373,1.4352,1.4374,1.4358,1.436,1.438,1.4404,1.4407,1.4411,1.4451,1.446,1.4467,0,0,0,0,0,0,1.4427,1.4408,1.4393,1.4421,1.4418,1.4404,1.442,1.4401,1.4404,1.44,1.4375,1.4373,1.4395,1.439,1.4372,1.4413,1.4385,1.4389,1.4415,1.4423,1.443,1.443,1.4335,0,0,0,0,0,1.444,1.445,1.4433,1.446,1.4458,1.444,1.4443,1.4428,1.4424,1.4422,1.4412,1.4409,1.4414,1.4419,1.4423,1.4453,1.4449,1.4468,1.4475,1.448,1.4483,1.4496,1.4503,1.4424,1.4424,1.4424,0,0,1.4468,1.446,1.4468,1.4469,1.4464,1.4474,1.4439,1.4451,1.4458,1.4424,1.4441,1.4434,1.4428,1.4452,1.4462,1.4448,1.4504,1.4484,1.4489,1.4489,1.45,1.4507,1.4514,1.4426,1.4426,1.4425,0,0,1.4524,1.452,1.4539,1.4535,1.4528,1.4515,1.452,1.4508,1.4501,1.4518,1.4492,1.4499,1.4511,1.4506,1.4506,1.4558,1.4537,1.456,1.4593,1.4606,1.4612,1.4617,1.4633,1.464,1.4564,1.4564,1.4564,0,1.456,1.4574,1.4552,1.4565,1.4565,1.4535,1.4553,1.4551,1.4546,1.4546,1.4531,1.4542,1.4536,1.4557,1.457,1.4571,1.4574,1.456,1.4613,1.4618,1.4623,1.4638,1.4644,1.4566,1.4566,1.4566,1.4566,0,1.4617,1.4627,1.4644,1.4638,1.4641,1.4657,1.4637,1.4642,1.4626,1.4614,1.463,1.4622,1.4622,1.4627,1.4612,1.4645,1.4636,1.4617,1.4589,1.4633,1.4647,1.4652,1.457,1.4569,1.4568,1.4568,0,0,1.4703,1.4684,1.469,1.4686,1.4675,1.4682,1.4696,1.4696,1.47,1.4697,1.4707,1.4716,1.4697,1.4697,1.4681,1.4693,1.4731,1.4672,1.4671,1.4681,1.4763,1.4776,1.4783,1.4718,1.4719,1.472,1.4763,0,1.4754,1.4776,1.4756,1.4782,1.4789,1.4759,1.477,1.4765,1.4754,1.4758,1.4746,1.4751,1.4728,1.4727,1.4737,1.4724,1.4747,1.4721,1.4725,1.4725,1.4725,1.4791,1.4805,1.4847,1.4769,1.4769,1.477,0,1.4817,1.4815,1.4842,1.4826,1.4829,1.484,1.4837,1.4842,1.4834,1.4825,1.4823,1.4803,1.4815,1.4788,1.4802,1.4785,1.4786,1.478,1.4781,1.4779,1.4749,1.4789,1.486,1.4865,1.4779,1.4778,1.4777,0,1.4873,1.4878,1.4894,1.4892,1.4875,1.4883,1.4877,1.4867,1.4868,1.4865,1.4865,1.4864,1.4864,1.4863,1.4843,1.4826,1.4859,1.4832,1.4851,1.4851,1.4858,1.4857,1.4927,1.4862,1.4862,1.4861,1.4861,0,1.4931,1.4948,1.4918,1.4928,1.4945,1.4921,1.4938,1.4929,1.492,1.4926,1.4901,1.4907,1.4882,1.4885,1.487,1.4883,1.4883,1.4875,1.4871,1.4876,1.4877,1.4875,1.4871,1.4863,1.4863,1.4862,1.4862,0,1.4997,1.4978,1.4993,1.4975,1.4971,1.4984,1.4969,1.4976,1.4963,1.4971,1.4971,1.4951,1.4953,1.4933,1.4933,1.4922,1.4941,1.4933,1.4943,1.494,1.4959,1.4956,1.5029,1.5036,1.4968,1.4968,1.4969,0,1.5034,1.5046,1.5029,1.5031,1.5025,1.5029,1.5029,1.5006,1.5006,1.4997,1.5005,1.5005,1.5003,1.5008,1.4993,1.4991,1.4981,1.5007,1.4981,1.4985,1.4979,1.4977,1.4977,1.5012,1.5012,1.5013,1.5014,0,1.5102,1.5091,1.5092,1.5088,1.5088,1.5085,1.508,1.5083,1.5057,1.5059,1.506,1.5059,1.5057,1.5057,1.5052,1.5044,1.5024,1.5022,1.5026,1.5031,1.5035,1.5031,1.4956,1.502,1.5019,1.5019,1.5019,1.5018,1.5152,1.516,1.5149,1.5149,1.5143,1.5138,1.5143,1.513,1.513,1.5126,1.5112,1.5116,1.5105,1.5096,1.5091,1.5092,1.508,1.5086,1.5087,1.5089,1.5091,1.5037,1.5092,1.5091,1.5091,1.5091,1.5091,0,1.5216,1.5207,1.5208,1.52,1.52,1.5181,1.5174,1.5175,1.5178,1.517,1.5168,1.5168,1.5167,1.5151,1.5148,1.5152,1.5143,1.5152,1.515,1.5148,1.5104,1.5099,1.5159,1.5159,1.5159,1.5159,1.5159,1.5159,1.5249,1.526,1.5248,1.5255,1.5245,1.5248,1.5245,1.524,1.5232,1.5234,1.5232,1.5222,1.521,1.5205,1.5203,1.5198,1.5197,1.5209,1.5201,1.5159,1.5152,1.5146,1.5141,1.5209,1.5209,1.5245,1.5245,1.5246]},{"header":{"parameterUnit":"m.s-1","parameterCategory":1,"la1":30.2991,"la2":30.254,"lo1":-89.0895,"lo2":-89.0444,"dy":0.0017,"dx":0.0017,"nx":28,"ny":28,"refTime":"2023-07-25T21:00:00:Z","depth":0,"parameterNumber":3,"parameterNumberName":"V-component_of_WINDS"},"data":[0,0,0,0,0,0,0,0,0,0,0,0,0,0,0,0,0,0,0,0,0,0,0,0,0,0,0,0,0,0,0,0,0,0,0,0,0,0,0,0,0,0,0,0,0,0,0,0,0,0,0,0,0,0,0,0,0,0,0.2657,0.2657,0,0.262,0.2619,0.2619,0.2589,0.2588,0.2588,0.2588,0.2548,0.2547,0.2547,0,0,0,0,0,0,0,0,0,0,0,0,0,0.2701,0.2701,0.2657,0.2657,0.2657,0.262,0.2619,0.2619,0.2589,0.2588,0.2588,0.2587,0.2548,0.2547,0.2546,0,0,0,0,0,0,0,0,0,0,0,0,0,0.2675,0.27,0.2658,0.2637,0.2635,0.262,0.2619,0.2619,0.2589,0.2588,0.2588,0.2587,0.2549,0.2547,0.2546,0.2548,0,0,0.2543,0.2542,0,0,0,0,0,0,0,0,0.2676,0.2673,0.2641,0.2638,0.2636,0.2608,0.262,0.2595,0.2589,0.2606,0.2588,0.2587,0.2568,0.2566,0.256,0.2547,0.2545,0.2543,0.2542,0.2542,0.2541,0,0,0,0,0,0,0,0.2678,0.2675,0.2643,0.264,0.2637,0.2629,0.2625,0.2615,0.259,0.2605,0.2602,0.2598,0.2567,0.2561,0.2558,0.2544,0.2543,0.2542,0.2541,0.2541,0.2529,0.253,0,0,0,0,0,0,0.2683,0.2676,0.2644,0.2641,0.2655,0.2629,0.2624,0.2618,0.259,0.2586,0.2599,0.2597,0.2563,0.256,0.2557,0.2557,0.2542,0.254,0.254,0.2529,0.2529,0.253,0,0,0,0,0,0,0.2684,0.2681,0.2645,0.2658,0.2653,0.2628,0.2622,0.2617,0.2611,0.2586,0.2581,0.2597,0.2562,0.2558,0.255,0.2555,0.254,0.2539,0.2528,0.2529,0.253,0.2557,0,0,0,0,0,0,0.2686,0.2681,0.2683,0.2658,0.2652,0.264,0.2622,0.2617,0.2609,0.2606,0.2583,0.2579,0.2562,0.2552,0.2549,0.2553,0.2538,0.2528,0.2529,0.2529,0.2555,0.2558,0.256,0,0,0,0,0,0.2687,0.2692,0.2683,0.2679,0.2654,0.2641,0.2637,0.2618,0.261,0.261,0.2594,0.2579,0.2555,0.2552,0.2548,0.2551,0.2528,0.2528,0.2529,0.2554,0.2558,0.256,0,0,0,0,0,0,0.2717,0.2688,0.2678,0.2675,0.266,0.2636,0.2636,0.2622,0.261,0.2608,0.2584,0.2579,0.2573,0.2561,0.2559,0.2551,0.2539,0.2539,0.2559,0.2562,0.2565,0.2568,0.2537,0,0,0,0,0,0.2723,0.2716,0.2691,0.269,0.2683,0.2661,0.2655,0.2641,0.2625,0.2618,0.2602,0.2586,0.2575,0.2568,0.2556,0.2553,0.2547,0.2553,0.2556,0.2558,0.2559,0.2555,0.2557,0.2533,0.2533,0.2533,0,0,0.2736,0.2719,0.2716,0.2696,0.2683,0.2675,0.2656,0.2649,0.2642,0.2617,0.2609,0.2595,0.2576,0.2571,0.2567,0.2561,0.2564,0.2559,0.2561,0.2561,0.2556,0.2558,0.256,0.2533,0.2533,0.2533,0,0,0.2755,0.2742,0.2739,0.2727,0.2708,0.2692,0.2692,0.2668,0.2659,0.265,0.263,0.2622,0.2603,0.259,0.2581,0.2593,0.2579,0.2589,0.2603,0.26,0.2602,0.2603,0.2607,0.2608,0.259,0.259,0.259,0,0.2773,0.2761,0.274,0.2733,0.2724,0.2701,0.2698,0.2687,0.2664,0.2658,0.2651,0.2626,0.2612,0.2602,0.2605,0.2598,0.2596,0.2592,0.2603,0.2605,0.2606,0.2609,0.261,0.2591,0.2591,0.2591,0.2591,0,0.2783,0.2775,0.2775,0.2754,0.2745,0.2741,0.2718,0.2711,0.2698,0.2683,0.2673,0.2655,0.2638,0.2635,0.2622,0.2622,0.2619,0.2608,0.2595,0.261,0.2612,0.2613,0.2593,0.2593,0.2592,0.2592,0,0,0.2821,0.2788,0.2788,0.2778,0.2754,0.2747,0.274,0.2724,0.2718,0.2703,0.2696,0.268,0.2669,0.2659,0.2644,0.2641,0.265,0.263,0.2629,0.2634,0.2648,0.2657,0.2659,0.264,0.264,0.2641,0.265,0,0.2836,0.2824,0.2804,0.2797,0.2789,0.2766,0.276,0.2744,0.2729,0.2719,0.2703,0.2691,0.2678,0.2671,0.2667,0.265,0.2653,0.2649,0.2633,0.2633,0.2639,0.266,0.2669,0.2679,0.2651,0.2651,0.2651,0,0.2852,0.2838,0.2831,0.2807,0.2802,0.2797,0.278,0.2771,0.2752,0.2741,0.2729,0.2712,0.2703,0.2691,0.2677,0.2675,0.2667,0.2657,0.2657,0.2655,0.2643,0.2658,0.2682,0.2683,0.2652,0.2652,0.2652,0,0.2879,0.2859,0.2851,0.2843,0.2815,0.2812,0.28,0.278,0.2771,0.2756,0.275,0.2733,0.2724,0.2712,0.269,0.2684,0.2678,0.2665,0.2668,0.2669,0.2669,0.2669,0.2691,0.2664,0.2664,0.2664,0.2664,0,0.2898,0.2894,0.2863,0.2859,0.2854,0.283,0.2825,0.2811,0.2794,0.2785,0.2764,0.2756,0.2729,0.2717,0.2701,0.2691,0.2687,0.2678,0.2673,0.2679,0.2681,0.2674,0.2673,0.2664,0.2664,0.2664,0.2664,0,0.2928,0.2907,0.2898,0.2871,0.2864,0.2862,0.2838,0.2832,0.2816,0.2806,0.2802,0.2776,0.2761,0.2739,0.2718,0.2706,0.2699,0.2692,0.2706,0.2703,0.2707,0.2707,0.2726,0.2726,0.2699,0.27,0.27,0,0.2941,0.2938,0.2911,0.2904,0.2892,0.2881,0.2872,0.2848,0.2839,0.2816,0.2813,0.2797,0.2783,0.276,0.2739,0.2722,0.2714,0.2722,0.2711,0.2717,0.2713,0.2714,0.2713,0.2724,0.2725,0.2725,0.2725,0,0.2967,0.2956,0.2944,0.2928,0.2917,0.2903,0.2887,0.2883,0.2855,0.2846,0.2831,0.282,0.2798,0.2781,0.2761,0.2747,0.2731,0.2729,0.2728,0.2735,0.2743,0.2738,0.2712,0.2728,0.2728,0.2728,0.2728,0.2728,0.2988,0.2984,0.2964,0.295,0.2936,0.2922,0.2915,0.2897,0.2885,0.2865,0.2851,0.2837,0.2816,0.2787,0.2774,0.2762,0.2755,0.2755,0.2755,0.2755,0.2757,0.2745,0.2758,0.2758,0.2758,0.2758,0.2758,0,0.3012,0.2998,0.2986,0.2965,0.2954,0.294,0.2922,0.2913,0.2901,0.2883,0.2869,0.2851,0.2835,0.2812,0.2793,0.2788,0.278,0.2783,0.2784,0.278,0.2765,0.2766,0.279,0.279,0.279,0.279,0.279,0.279,0.3023,0.3015,0.3002,0.2985,0.297,0.2956,0.2947,0.2933,0.2919,0.29,0.2886,0.2871,0.2851,0.2831,0.2814,0.2808,0.2802,0.2808,0.2799,0.2785,0.2782,0.2779,0.2781,0.2807,0.2807,0.2816,0.2816,0.2816]}]]